TimeEST,TemperatureF,Dew PointF,Humidity,Sea Level PressureIn,VisibilityMPH,Wind Direction,Wind SpeedMPH,Gust SpeedMPH,PrecipitationIn,Events,Conditions,WindDirDegrees,DateUTC
12:53 AM,69.1,66.9,93,30.06,10.0,Calm,Calm,-,N/A,,Clear,0,2013-01-17 05:53:00
1:32 AM,69.8,68.0,94,30.06,10.0,East,3.5,-,N/A,,Mostly Cloudy,80,2013-01-17 06:32:00
1:48 AM,69.8,66.2,88,30.06,10.0,East,4.6,-,N/A,,Mostly Cloudy,80,2013-01-17 06:48:00
1:53 AM,68.0,66.9,96,30.06,10.0,East,3.5,-,N/A,,Scattered Clouds,80,2013-01-17 06:53:00
2:53 AM,70.0,69.1,97,30.06,10.0,Calm,Calm,-,N/A,,Overcast,0,2013-01-17 07:53:00
3:53 AM,69.1,66.9,93,30.05,10.0,Calm,Calm,-,N/A,,Clear,0,2013-01-17 08:53:00
4:53 AM,68.0,66.0,93,30.05,10.0,Calm,Calm,-,N/A,,Clear,0,2013-01-17 09:53:00
5:53 AM,66.0,64.9,96,30.06,10.0,Calm,Calm,-,N/A,,Clear,0,2013-01-17 10:53:00
6:53 AM,64.9,64.0,97,30.07,10.0,Calm,Calm,-,N/A,,Clear,0,2013-01-17 11:53:00
7:53 AM,66.0,66.0,100,30.09,10.0,Calm,Calm,-,N/A,,Clear,0,2013-01-17 12:53:00
8:53 AM,73.9,70.0,87,30.10,10.0,South,5.8,-,N/A,,Clear,180,2013-01-17 13:53:00
9:53 AM,77.0,68.0,74,30.11,10.0,South,9.2,-,N/A,,Mostly Cloudy,180,2013-01-17 14:53:00
10:33 AM,80.6,68.0,65,30.10,10.0,South,9.2,-,N/A,,Overcast,170,2013-01-17 15:33:00
10:44 AM,78.8,66.2,65,30.10,10.0,South,9.2,-,N/A,,Mostly Cloudy,180,2013-01-17 15:44:00
10:53 AM,81.0,68.0,65,30.09,10.0,South,10.4,-,N/A,,Mostly Cloudy,180,2013-01-17 15:53:00
12:45 PM,71.6,68.0,88,30.06,10.0,SW,12.7,-,0.02,Rain,Light Rain,230,2013-01-17 17:45:00
12:53 PM,71.1,68.0,90,30.06,10.0,SW,12.7,-,0.02,Rain,Light Rain,230,2013-01-17 17:53:00
1:53 PM,71.1,68.0,90,30.02,10.0,South,13.8,-,0.03,,Overcast,170,2013-01-17 18:53:00
2:53 PM,72.0,69.1,91,30.01,10.0,SSE,6.9,-,N/A,,Overcast,160,2013-01-17 19:53:00
3:53 PM,73.9,68.0,82,30.02,10.0,South,6.9,-,N/A,,Overcast,190,2013-01-17 20:53:00
4:53 PM,77.0,66.9,71,30.01,10.0,South,8.1,-,N/A,,Mostly Cloudy,190,2013-01-17 21:53:00
5:53 PM,75.0,66.0,73,30.03,10.0,SW,5.8,-,N/A,,Clear,220,2013-01-17 22:53:00
6:53 PM,75.0,64.9,71,30.05,10.0,West,12.7,-,N/A,,Mostly Cloudy,280,2013-01-17 23:53:00
7:15 PM,71.6,64.4,78,30.07,10.0,NW,19.6,29.9,N/A,,Overcast,310,2013-01-18 00:15:00
7:53 PM,64.9,60.1,84,30.10,10.0,NW,15.0,23.0,0.00,,Overcast,310,2013-01-18 00:53:00
8:19 PM,64.4,57.2,77,30.11,10.0,NW,19.6,27.6,N/A,,Mostly Cloudy,320,2013-01-18 01:19:00
8:53 PM,62.1,55.9,80,30.12,10.0,NW,11.5,-,N/A,,Clear,310,2013-01-18 01:53:00
9:08 PM,62.6,55.4,77,30.13,10.0,NW,16.1,-,N/A,,Mostly Cloudy,310,2013-01-18 02:08:00
9:53 PM,62.1,55.0,78,30.12,10.0,WNW,13.8,-,N/A,,Overcast,300,2013-01-18 02:53:00
10:17 PM,60.8,55.4,82,30.12,10.0,WNW,9.2,-,N/A,,Scattered Clouds,300,2013-01-18 03:17:00
10:53 PM,61.0,54.0,78,30.12,10.0,NW,11.5,-,N/A,,Clear,320,2013-01-18 03:53:00
11:53 PM,60.1,53.1,78,30.13,10.0,WNW,13.8,-,N/A,,Clear,300,2013-01-18 04:53:00